Location: Newark
(15.4608°S, 41.1635°W)
Time: 23:10:47
(UTC+00:00)

Transit 4A - Pass Details

Date: 09 August 2021
Orbit: 871 x 974 km, 66.8° (Epoch: 17 September)

Event Time Altitude Azimuth Distance (km) Brightness Sun altitude
Rises 23:31:21 0° 221° (SW) 3,613 11.3 -42.2°
Reaches altitude 10° 23:34:21 10° 233° (SW) 2,645 10.6 -43.0°
Enters shadow 23:36:32 19° 250° (WSW) 2,077 10.1 -43.5°
